This is the latest recevied weather packets stored in our database for station/object IN3XSV-13. If no packets are shown the sender has not sent any weather packets the latest 10 day(s).
| Time | Temp. | Humidity | Pressure | Rain* | Wind** | Luminosity | Snow |
|---|---|---|---|---|---|---|---|
| 1777794234 | 21.67° C | 45% | 9959.1 hPa | 0 mm | - | - | - |
| 1777793934 | 21.11° C | 45% | 9959.2 hPa | 0 mm | - | - | - |
| 1777793634 | 21.11° C | 44% | 9959.2 hPa | 0 mm | - | - | - |
| 1777793334 | 22.22° C | 45% | 9959.2 hPa | 0 mm | - | - | - |
| 1777793034 | 22.22° C | 46% | 9959.3 hPa | 0 mm | - | - | - |
| 1777792734 | 21.67° C | 46% | 9959.2 hPa | 0 mm | - | - | - |
| 1777792434 | 22.78° C | 46% | 9959.4 hPa | 0 mm | - | - | - |
| 1777792134 | 22.78° C | 45% | 9959.4 hPa | 0 mm | - | - | - |
| 1777791834 | 22.78° C | 46% | 9959.5 hPa | 0 mm | - | - | - |
| 1777791534 | 23.33° C | 47% | 9959.6 hPa | 0 mm | - | - | - |
| 1777791234 | 22.22° C | 49% | 9959.5 hPa | 0 mm | - | - | - |
| 1777790934 | 21.67° C | 50% | 9959.6 hPa | 0 mm | - | - | - |
| 1777790634 | 20.56° C | 51% | 9959.6 hPa | 0 mm | - | - | - |
| 1777790334 | 20° C | 51% | 9959.6 hPa | 0 mm | - | - | - |
| 1777790034 | 20.56° C | 51% | 9959.6 hPa | 0 mm | - | - | - |
| 1777789734 | 20° C | 52% | 9959.6 hPa | 0 mm | - | - | - |
| 1777789434 | 20° C | 53% | 9959.6 hPa | 0 mm | - | - | - |
| 1777789134 | 20.56° C | 52% | 9959.6 hPa | 0 mm | - | - | - |
| 1777788834 | 20° C | 53% | 9959.7 hPa | 0 mm | - | - | - |
| 1777788534 | 20° C | 54% | 9959.5 hPa | 0 mm | - | - | - |
| 1777788234 | 18.89° C | 55% | 9959.6 hPa | 0 mm | - | - | - |
| 1777787934 | 17.78° C | 56% | 9959.7 hPa | 0 mm | - | - | - |
| 1777787634 | 17.78° C | 56% | 9959.7 hPa | 0 mm | - | - | - |
| 1777787334 | 17.78° C | 57% | 9959.7 hPa | 0 mm | - | - | - |
| 1777787034 | 17.78° C | 57% | 9959.7 hPa | 0 mm | - | - | - |
* Rain latest hour (hover to see other rain measurements)
** Current wind speed in m/s (hover to see current wind gust speed)